Regional Weather Roundup
Issued by NWS

Home | Current Version | Previous Version | Graphics & Text | Print | Product List | Glossary On
Versions: 1 2 3 4 5 6 7 8 9 10 11 12 13 14 15 16 17 18 19 20 21 22 23 24 25 26 27 28 29 30 31 32 33 34 35 36 37 38 39 40 41 42 43 44 45 46 47 48 49 50
000
ASUS45 KBOU 241807
RWRCO

WEATHER ROUNDUP FOR COLORADO
NATIONAL WEATHER SERVICE DENVER/BOULDER CO
1200 PM MDT MON JUL 24 2017

NOTE: "FAIR" INDICATES FEW OR NO CLOUDS BELOW 12000 FEET WITH NO
SIGNIFICANT WEATHER AND/OR OBSTRUCTIONS TO VISIBILITY.

COZ001>005-013-030-031-241900-
...NORTHWEST COLORADO...

CITY           SKY/WX    TMP DP  RH WIND       PRES   REMARKS
CRAIG          FAIR      87  39  18 N9        30.19F
HAYDEN         FAIR      81  39  22 W8        30.22F
MEEKER         FAIR      85  43  22 VRB3      30.20F
RABBIT EARS PA FAIR      64  43  45 W10G17    30.55S
STEAMBOAT SPGS FAIR      80  42  25 SW5       30.24F
WALDEN         FAIR      77  37  24 W6        30.34F
$$

COZ006>008-011-241900-
...WEST CENTRAL VALLEYS...

CITY           SKY/WX    TMP DP  RH WIND       PRES   REMARKS
GRAND JUNCTION FAIR      90  49  24 VRB5      30.09F
MONTROSE       FAIR      83  47  28 VRB3      30.18F
EAGLE          SUNNY     81  46  30 MISG      30.24F
RIFLE          FAIR      85  46  25 NW6       30.15F
DELTA          FAIR      88  47  24 CALM      30.14F
NUCLA          FAIR      82  46  28 N5        30.23F
$$

COZ017>023-064>068-241900-
...SOUTHWEST COLORADO...

CITY           SKY/WX    TMP DP  RH WIND       PRES   REMARKS
DURANGO        FAIR      80  51  36 VRB5      30.26F
CORTEZ         FAIR      82  54  37 W8        30.21F
PAGOSA SPRINGS FAIR      76  44  31 S5        30.33F
TELLURIDE      CLOUDY    68  48  48 W5        30.46S
WOLF CREEK PAS NOT AVBL
$$

COZ009-010-012-014-032>034-037-058>063-241900-
...CENTRAL COLORADO...

CITY           SKY/WX    TMP DP  RH WIND       PRES   REMARKS
ASPEN          FAIR      79  41  25 N8        30.30F
BUENA VISTA    FAIR      77  42  28 E5        30.32F
COPPER MTN     PTSUNNY   61  32  33 NW5       30.67S
BERTHOUD PASS  FAIR      54  39  58 W3        30.70S
COTTONWOOD PAS FAIR      79  37  22 CALM      30.48F
GUNNISON       FAIR      73  48  41 S5        30.33F
KREMMLING      FAIR      84  37  18 SW3       30.29F
LEADVILLE      FAIR      72  35  25 N13G22    30.46F
MONARCH PASS   FAIR      61  41  48 W7G16     30.76F
SALIDA         FAIR      82  45  26 CALM      30.35F
SUNLIGHT       FAIR      63  43  48 SW5       30.59F
WILKERSON PASS FAIR      61  39  44 CALM      30.62S
$$

COZ069>075-241900-
...SAN LUIS VALLEY/SANGRE DE CRISTO MOUNTAINS...

CITY           SKY/WX    TMP DP  RH WIND       PRES   REMARKS
ALAMOSA        FAIR      75  50  41 VRB3      30.32F
DEL NORTE      FAIR      75  49  40 SE7       30.35F
LA VETA PASS   NOT AVBL
SAGUACHE         N/A    N/A N/A N/A MISG        N/A
$$

COZ035-036-038>040-241900-
...NORTHERN COLORADO FRONT RANGE...

CITY           SKY/WX    TMP DP  RH WIND       PRES   REMARKS
DENVER INTL AP FAIR      92  42  17 N5        30.07F
DMNS CITY PARK   N/A     90  41  18 N5        30.07S
AURORA         MOSUNNY   89  43  20 CALM      30.10F
FRONT RANGE AP FAIR      91  41  17 NW5       30.09F
ERIE MUNI ARPT FAIR      91  38  16 E3        30.06S
BOULDER MUN AP FAIR      90  46  22 SE7       30.07S
CENTENNIAL     FAIR      90  39  16 N8        30.11F
BROOMFIELD     FAIR      90  43  19 E6        30.10S
FORT COLLINS   FAIR      92  44  19 E8        30.05F
LONGMONT       FAIR      92  48  22 E6        30.06S
$$

COZ041-046-047-076>085-087-088-241900-
...PIKES PEAK/PALMER DIVIDE AND SOUTHERN FOOTHILLS...

CITY           SKY/WX    TMP DP  RH WIND       PRES   REMARKS
COLO. SPRINGS  FAIR      83  57  41 S12G20    30.18F
A. F. ACADEMY  FAIR      81  55  41 S8        30.18F
SCHRIEVER AFB  FAIR      80  51  36 SE12G18   30.19F
CHEYENNE MTN   NOT AVBL
ELLICOTT       FAIR     N/A N/A N/A S10G18    30.17S
FALCON           N/A     80  51  36 S14       30.24S
FORT CARSON    FAIR      81  58  45 SE3       30.14F
LIMON          FAIR      85  50  29 S15G24    30.12F
MONUMENT HILL  FAIR      81  43  26 E3        30.24S
CANON CITY     SUNNY     90  54  29 CALM      30.09F
WALSENBURG     FAIR      88  46  23 CALM      30.16F
TRINIDAD       FAIR      86  42  21 CALM      30.16F
$$

COZ042>045-048>051-090-091-241900-
...NORTHEAST COLORADO...

CITY           SKY/WX    TMP DP  RH WIND       PRES   REMARKS
GREELEY ARPT   FAIR      89  55  31 VRB3      30.04F
AKRON          FAIR      90  52  27 S18G24    30.04F
BURLINGTON     FAIR      89  61  38 S17G23    30.07F
WRAY           NOT AVBL
YUMA           FAIR      90  43  19 S12G21    30.02S
STERLING       FAIR      95  54  24 SW15      29.97S
HOLYOKE        FAIR      95  57  28 S16G23    29.99F
FORT MORGAN    FAIR      95  47  19 S9G20     30.02F
$$

COZ086-089-092>099-241900-
...SOUTHEAST COLORADO...

CITY           SKY/WX    TMP DP  RH WIND       PRES   REMARKS
PUEBLO         FAIR      88  54  31 VRB7      30.06F
LA JUNTA       FAIR      91  52  26 SE8       30.04F
LAMAR          FAIR      92  60  34 S12G20    30.01F
SPRINGFIELD      N/A     87  60  40 S13G20    30.09F
$$



USA.gov is the U.S. government's official web portal to all federal, state and local government web resources and services.